User: anonymous   Login
Location: Salamanca
(40.9670°N, 5.6500°W)
Time: 18:27:30
(UTC+01:00)
Language:

Cosmos 1633 Rocket - Orbit

View from above orbital plane
View from above orbital plane
View from above satellite
View from above satellite

Ground track
Ground track

The orbit data is extracted from the following two-line orbital elements,

1 15593U 85020B   14302.84569701  .00000641  00000-0  74545-4 0  8043
2 15593 082.5379 082.0382 0010886 340.5995 179.6251 14.83798328601786
Epoch (UTC): 29 October 2014 20:17:48
Eccentricity: 0.0010886
inclination: 82.5379°
perigee height: 610 km
apogee height: 625 km
right ascension of ascending node: 82.0382°
argument of perigee: 340.5995°
revolutions per day: 14.83798328
mean anomaly at epoch: 179.6251°
orbit number at epoch: 60178

The dashed part of the orbit path shows where the satellite is in the earth's shadow,  

DLR